This demonstration page uses our WeatherBlox Daily Observations layout. Learn more.

36.17497, -115.13722

Hourly Observations for July 9, 2015

Temp ( °F °C ) Dew Point ( °F °C ) Humidity (%) Winds ( mph kmh ) Pressure ( in mb ) Visibility ( mi km ) Precip ( " mm )
12:53 am 00:53 Clear 84 29 45 7 25 25 S 9 15 29.56 1001 10 16.09344 0 0
1:53 am 01:53 Clear 82 28 45 7 26 26 S 10 17 29.56 1001 10 16.09344 0 0
2:53 am 02:53 Clear 81 27 45 7 28 28 S 13 20 29.56 1001 10 16.09344 0 0
3:53 am 03:53 Clear 79 26 45 7 30 30 S 8 13 29.56 1001 10 16.09344 0 0
4:53 am 04:53 Clear 77 25 45 7 32 32 SSE 10 17 29.62 1003 10 16.09344 0 0
5:53 am 05:53 Sunny 77 25 46 8 34 34 SSW 5 7 29.62 1003 10 16.09344 0 0
6:53 am 06:53 Sunny 79 26 48 9 34 34 SSE 7 11 29.65 1004 10 16.09344 0 0
7:53 am 07:53 Sunny 81 27 48 9 32 32 N 5 7 29.62 1003 10 16.09344 0 0
8:53 am 08:53 Sunny 82 28 45 7 26 26 SSE 14 22 29.62 1003 10 16.09344 0 0
9:53 am 09:53 Sunny 88 31 45 7 22 22 SSE 18 30 29.59 1002 10 16.09344 0 0
10:53 am 10:53 Sunny 88 31 43 6 21 21 SSE 15 24 29.59 1002 10 16.09344 0 0
11:53 am 11:53 Mostly Sunny 90 32 43 6 20 20 S 12 19 29.59 1002 10 16.09344 0 0
12:46 pm 12:46 Sunny 91 33 39 4 16 16 S 18 30 29.56 1001 10 16.09344 0 0
12:53 pm 12:53 Sunny 91 33 39 4 16 16 SE 14 22 29.56 1001 10 16.09344 0 0
1:53 pm 13:53 Partly Cloudy 93 34 36 2 13 13 SE 21 33 29.5 999 10 16.09344 0 0
2:53 pm 14:53 Mostly Sunny 91 33 36 2 14 14 SSE 24 39 29.53 1000 10 16.09344 0 0
3:53 pm 15:53 Sunny 91 33 36 2 14 14 SSW 15 24 29.53 1000 10 16.09344 0 0
4:53 pm 16:53 Partly Cloudy with Light Rain 82 28 46 8 28 28 WNW 9 15 29.56 1001 10 16.09344 0.001 0.001
5:53 pm 17:53 Sunny 90 32 39 4 17 17 WSW 14 22 29.53 1000 10 16.09344 0.001 0.001
6:53 pm 18:53 Sunny 90 32 36 2 15 15 W 15 24 29.53 1000 10 16.09344 0 0
7:53 pm 19:53 Sunny 88 31 34 1 15 15 W 9 15 29.53 1000 10 16.09344 0 0
8:53 pm 20:53 Clear 86 30 36 2 17 17 W 7 11 29.53 1000 10 16.09344 0 0
9:53 pm 21:53 Clear 84 29 37 3 19 19 WSW 6 9 29.59 1002 10 16.09344 0 0
10:53 pm 22:53 Clear 82 28 37 3 20 20 SSW 12 19 29.62 1003 10 16.09344 0 0
11:53 pm 23:53 Clear 82 28 36 2 19 19 S 9 15 29.62 1003 10 16.09344 0 0

Powered by AerisWeather